Wilmington, OH

12:31 PM EST on November 24, 2017 (GMT -0500)
Airborne

Weather History for KILN - June, 2013

Change the Weather History Date:

Sunday, June 16, 2013

  Actual Average (KFFO) Record (KFFO)
Temperature  
Mean Temperature 70 °F -  
Max Temperature 77 °F 78 °F 89 °F (2012)
Min Temperature 66 °F 58 °F 50 °F (1999)
Cooling Degree Days 6    
Growing Degree Days 20 (Base 50)    
Moisture  
Dew Point 64 °F    
Average Humidity 80    
Maximum Humidity 97    
Minimum Humidity 64    
Precipitation  
Precipitation 0.03 in - - ()
Sea Level Pressure  
Sea Level Pressure 29.97 in    
Wind  
Wind Speed 8 mph (SW)    
Max Wind Speed 15 mph    
Max Gust Speed 21 mph    
Visibility 9 miles    
Events Rain    
Averages and records for this station are not official NWS values.
T = Trace of Precipitation, MM = Missing Value Source: NWS Daily Summary

Daily Weather History Graph

Daily Weather History Graph

Search for Another Location

Airport or City:

Trip Planner

Search our weather history database for the weather conditions in past years. The results will help you decide how hot, cold, wet, or windy it might be!

Date:

Astronomy

Jun. 16, 2013 Rise Set
Actual Time 6:07 AM EDT 9:04 PM EDT
Civil Twilight 5:35 AM EDT 9:36 PM EDT
Nautical Twilight 4:54 AM EDT 10:17 PM EDT
Astronomical Twilight 4:06 AM EDT 11:05 PM EDT
Moon 1:40 PM EDT (6/16) 1:10 AM EDT (6/16)
Length of Visible Light 16h 01m
Length of Day
14h 56m
Waxing Crescent, 49% of the Moon is Illuminated
Jun 16
Waxing Crescent
Jun 16
First Quarter
Jun 23
Full
Jun 30
Last Quarter
Jul 8
New

Hourly Weather History & Observations

Time (EDT) Temp. Dew Point Humidity Pressure Visibility Wind Dir Wind Speed Gust Speed Precip Events Conditions
12:54 AM 69.1 °F 62.1 °F 78% 29.97 in 10.0 mi South 4.6 mph - N/A   Scattered Clouds
1:54 AM 68.0 °F 61.0 °F 78% 29.96 in 10.0 mi SW 5.8 mph - N/A   Partly Cloudy
2:54 AM 66.0 °F 61.0 °F 84% 29.96 in 6.0 mi SW 6.9 mph - N/A   Haze
3:54 AM 69.1 °F 62.1 °F 78% 29.94 in 10.0 mi SW 8.1 mph - N/A   Overcast
4:54 AM 68.0 °F 62.1 °F 81% 29.93 in 10.0 mi SW 4.6 mph - N/A   Clear
5:54 AM 71.1 °F 62.1 °F 73% 29.95 in 10.0 mi West 8.1 mph - N/A   Clear
6:54 AM 68.0 °F 63.0 °F 84% 29.95 in 10.0 mi Calm Calm - 0.00 in Rain Light Rain
7:54 AM 68.0 °F 64.9 °F 90% 29.99 in 10.0 mi SW 4.6 mph - 0.00 in Rain Light Rain
8:54 AM 69.1 °F 64.9 °F 87% 30.00 in 9.0 mi WSW 9.2 mph - 0.00 in   Overcast
9:38 AM 69.8 °F 66.2 °F 88% 30.03 in 2.0 mi WSW 10.4 mph - 0.03 in Rain Light Rain
9:47 AM 69.8 °F 66.2 °F 88% 30.03 in 10.0 mi SSW 10.4 mph - 0.03 in   Overcast
9:54 AM 69.1 °F 64.9 °F 87% 30.01 in 10.0 mi SW 11.5 mph - 0.03 in Rain Light Rain
10:54 AM 70.0 °F 64.9 °F 84% 30.00 in 10.0 mi SW 12.7 mph - 0.00 in   Clear
11:54 AM 72.0 °F 64.9 °F 78% 29.99 in 10.0 mi WSW 11.5 mph - N/A   Partly Cloudy
12:54 PM 75.0 °F 64.9 °F 71% 29.99 in 10.0 mi West 13.8 mph - N/A   Scattered Clouds
1:54 PM 75.9 °F 63.0 °F 64% 29.99 in 10.0 mi West 13.8 mph 20.7 mph N/A   Mostly Cloudy
2:54 PM 73.9 °F 64.9 °F 73% 29.99 in 10.0 mi West 11.5 mph - 0.00 in Rain Light Rain
3:54 PM 75.9 °F 66.0 °F 71% 29.97 in 10.0 mi WSW 11.5 mph - 0.00 in   Overcast
4:54 PM 75.9 °F 64.0 °F 67% 29.96 in 10.0 mi West 15.0 mph - N/A   Mostly Cloudy
5:54 PM 75.0 °F 64.0 °F 69% 29.96 in 10.0 mi WSW 11.5 mph - N/A   Mostly Cloudy
6:54 PM 73.9 °F 64.9 °F 73% 29.96 in 10.0 mi WSW 10.4 mph - N/A   Mostly Cloudy
7:54 PM 73.0 °F 64.9 °F 76% 29.96 in 10.0 mi WSW 8.1 mph - N/A   Partly Cloudy
8:54 PM 71.1 °F 66.0 °F 84% 29.96 in 10.0 mi SW 6.9 mph - N/A   Clear
9:54 PM 69.1 °F 66.0 °F 90% 29.96 in 10.0 mi SSW 5.8 mph - N/A   Clear
10:54 PM 68.0 °F 66.0 °F 93% 29.97 in 10.0 mi SSW 5.8 mph - N/A   Clear
11:54 PM 66.9 °F 66.0 °F 97% 29.97 in 6.0 mi SW 4.6 mph - N/A   Clear